Tracking 30466 objects as of 17-May-2025
HD Live streaming from Space Station
objects crossing your sky now

THOR ABLESTAR DEB

Track THOR ABLESTAR DEB now!
10-day predictions


NORAD ID: 5745
Int'l Code: 1961-015JU
Perigee: 689.0 km
Apogee: 782.1 km
Inclination: 67.1 °
Period: 99.4 minutes
Semi major axis: 7106 km
RCS: 0.0107 m2 (small)
Launch date: June 29, 1961
Source: United States (US)
Launch site: AIR FORCE EASTERN TEST RANGE (AFETR)

Note: This is SATELLITE DEBRIS
Your satellite tracking list
Your tracking list is empty




NASA's NSSDC Master Catalog

Two Line Element Set (TLE):
1  5745U 61015JU  25137.00477682  .00013149  00000-0  33744-2 0  9997
2  5745  67.0665 101.7383 0065498 356.1813   3.8788 14.49147713209393
Source of the keplerian elements: AFSPC